Time,TemperatureF,DewpointF,PressureIn,WindDirection,WindDirectionDegrees,WindSpeedMPH,WindSpeedGustMPH,Humidity,HourlyPrecipIn,Conditions,Clouds,dailyrainin,SoftwareType,DateUTC
2013-07-30 00:10:00,66.9,53.0,29.80,WSW,243,0.0,0.0,62,0.00,,,0.00,weatherlink.com 1.10,2013-07-30 06:10:00,
2013-07-30 00:25:00,66.5,54.0,29.80,WNW,283,0.0,0.0,64,0.00,,,0.00,weatherlink.com 1.10,2013-07-30 06:25:00,
2013-07-30 00:40:00,64.9,55.0,29.81,West,269,0.0,0.0,70,0.00,,,0.00,weatherlink.com 1.10,2013-07-30 06:40:00,
2013-07-30 00:55:00,64.5,54.0,29.81,WSW,247,0.0,0.0,69,0.00,,,0.00,weatherlink.com 1.10,2013-07-30 06:55:00,
2013-07-30 01:10:00,64.0,54.0,29.80,West,263,0.0,0.0,69,0.00,,,0.00,weatherlink.com 1.10,2013-07-30 07:10:00,
2013-07-30 01:26:00,63.4,54.0,29.80,West,260,0.0,0.0,72,0.00,,,0.00,weatherlink.com 1.10,2013-07-30 07:26:00,
2013-07-30 01:41:00,62.6,54.0,29.81,West,260,0.0,0.0,74,0.00,,,0.00,weatherlink.com 1.10,2013-07-30 07:41:00,
2013-07-30 01:56:00,61.8,54.0,29.81,WNW,287,0.0,0.0,76,0.00,,,0.00,weatherlink.com 1.10,2013-07-30 07:56:00,
2013-07-30 02:11:00,62.1,54.0,29.82,WNW,290,0.0,1.0,75,0.00,,,0.00,weatherlink.com 1.10,2013-07-30 08:11:00,
2013-07-30 02:26:00,61.7,54.0,29.82,WSW,252,0.0,0.0,76,0.00,,,0.00,weatherlink.com 1.10,2013-07-30 08:26:00,
2013-07-30 02:41:00,60.6,54.0,29.82,WSW,249,0.0,0.0,79,0.00,,,0.00,weatherlink.com 1.10,2013-07-30 08:41:00,
2013-07-30 02:56:00,59.6,54.0,29.81,WSW,245,0.0,0.0,82,0.00,,,0.00,weatherlink.com 1.10,2013-07-30 08:56:00,
2013-07-30 03:11:00,59.2,54.0,29.81,WSW,245,0.0,0.0,84,0.00,,,0.00,weatherlink.com 1.10,2013-07-30 09:11:00,
2013-07-30 03:26:00,59.1,54.0,29.81,WSW,250,0.0,0.0,84,0.00,,,0.00,weatherlink.com 1.10,2013-07-30 09:26:00,
2013-07-30 03:41:00,58.8,54.0,29.81,West,277,0.0,0.0,84,0.00,,,0.00,weatherlink.com 1.10,2013-07-30 09:41:00,
2013-07-30 04:11:00,58.4,54.0,29.81,WSW,238,0.0,0.0,85,0.00,,,0.00,weatherlink.com 1.10,2013-07-30 10:11:00,
2013-07-30 04:26:00,57.9,54.0,29.81,SSW,208,0.0,0.0,87,0.00,,,0.00,weatherlink.com 1.10,2013-07-30 10:26:00,
2013-07-30 04:41:00,57.5,54.0,29.82,SSW,210,0.0,0.0,88,0.00,,,0.00,weatherlink.com 1.10,2013-07-30 10:41:00,
2013-07-30 04:56:00,56.9,54.0,29.82,SSW,210,0.0,0.0,89,0.00,,,0.00,weatherlink.com 1.10,2013-07-30 10:56:00,
2013-07-30 05:11:00,56.2,53.0,29.81,SSW,210,0.0,0.0,90,0.00,,,0.00,weatherlink.com 1.10,2013-07-30 11:11:00,
2013-07-30 05:26:00,54.0,51.0,29.82,WSW,251,0.0,0.0,90,0.00,,,0.00,weatherlink.com 1.10,2013-07-30 11:26:00,
2013-07-30 05:41:00,-999.0,-99.9,29.83,North,-999,-999.0,-999.0,-999,0.00,,,0.00,weatherlink.com 1.10,2013-07-30 11:41:00,
2013-07-30 05:56:00,-999.0,-99.9,29.83,North,-999,-999.0,-999.0,-999,0.00,,,0.00,weatherlink.com 1.10,2013-07-30 11:56:00,
2013-07-30 06:11:00,-999.0,-99.9,29.84,North,-999,-999.0,-999.0,-999,0.00,,,0.00,weatherlink.com 1.10,2013-07-30 12:11:00,
2013-07-30 06:26:00,-999.0,-99.9,29.84,North,-999,-999.0,-999.0,-999,0.00,,,0.00,weatherlink.com 1.10,2013-07-30 12:26:00,
2013-07-30 06:41:00,-999.0,-99.9,29.84,North,-999,-999.0,-999.0,-999,0.00,,,0.00,weatherlink.com 1.10,2013-07-30 12:41:00,
2013-07-30 06:56:00,59.9,54.0,29.85,SSE,150,0.0,0.0,81,0.00,,,0.00,weatherlink.com 1.10,2013-07-30 12:56:00,
2013-07-30 07:11:00,59.7,54.0,29.85,WSW,242,0.0,0.0,82,0.00,,,0.00,weatherlink.com 1.10,2013-07-30 13:11:00,
2013-07-30 07:26:00,61.9,55.0,29.84,SSW,205,0.0,1.0,79,0.00,,,0.00,weatherlink.com 1.10,2013-07-30 13:26:00,
2013-07-30 07:42:00,63.9,55.0,29.85,WSW,250,0.0,1.0,74,0.00,,,0.00,weatherlink.com 1.10,2013-07-30 13:42:00,
2013-07-30 07:57:00,63.9,56.0,29.85,West,270,0.0,1.0,76,0.00,,,0.00,weatherlink.com 1.10,2013-07-30 13:57:00,
2013-07-30 08:12:00,65.1,56.0,29.85,WNW,293,0.0,1.0,72,0.00,,,0.00,weatherlink.com 1.10,2013-07-30 14:12:00,
2013-07-30 08:27:00,67.4,56.0,29.85,WSW,253,0.0,0.0,67,0.00,,,0.00,weatherlink.com 1.10,2013-07-30 14:27:00,
2013-07-30 08:42:00,72.3,56.0,29.84,NNW,331,0.0,1.0,57,0.00,,,0.00,weatherlink.com 1.10,2013-07-30 14:42:00,
2013-07-30 08:57:00,74.0,55.0,29.84,WSW,240,0.0,1.0,52,0.00,,,0.00,weatherlink.com 1.10,2013-07-30 14:57:00,
2013-07-30 09:12:00,72.6,56.0,29.84,WNW,285,0.0,1.0,56,0.00,,,0.00,weatherlink.com 1.10,2013-07-30 15:12:00,
2013-07-30 09:27:00,76.7,56.0,29.84,South,190,0.0,2.0,49,0.00,,,0.00,weatherlink.com 1.10,2013-07-30 15:27:00,
2013-07-30 09:42:00,76.4,55.0,29.84,West,269,0.0,1.0,48,0.00,,,0.00,weatherlink.com 1.10,2013-07-30 15:42:00,
2013-07-30 10:12:00,80.0,55.0,29.83,East,90,1.0,2.0,43,0.00,,,0.00,weatherlink.com 1.10,2013-07-30 16:12:00,
2013-07-30 10:27:00,82.0,52.0,29.82,South,177,4.0,4.0,35,0.00,,,0.00,weatherlink.com 1.10,2013-07-30 16:27:00,
2013-07-30 10:42:00,82.5,53.0,29.82,SSE,148,2.0,5.0,36,0.00,,,0.00,weatherlink.com 1.10,2013-07-30 16:42:00,
2013-07-30 10:57:00,84.1,52.0,29.82,West,259,0.0,5.0,33,0.00,,,0.00,weatherlink.com 1.10,2013-07-30 16:57:00,
2013-07-30 11:12:00,84.1,52.0,29.82,WSW,239,2.0,6.0,33,0.00,,,0.00,weatherlink.com 1.10,2013-07-30 17:12:00,
2013-07-30 11:27:00,86.3,52.0,29.81,SW,232,0.0,4.0,31,0.00,,,0.00,weatherlink.com 1.10,2013-07-30 17:27:00,
2013-07-30 11:42:00,87.5,52.0,29.80,West,273,0.0,3.0,30,0.00,,,0.00,weatherlink.com 1.10,2013-07-30 17:42:00,
2013-07-30 11:57:00,88.3,52.0,29.80,WSW,252,2.0,4.0,29,0.00,,,0.00,weatherlink.com 1.10,2013-07-30 17:57:00,
2013-07-30 12:12:00,88.2,51.0,29.79,SSW,208,0.0,1.0,28,0.00,,,0.00,weatherlink.com 1.10,2013-07-30 18:12:00,
2013-07-30 12:27:00,88.0,51.0,29.79,West,259,2.0,7.0,28,0.00,,,0.00,weatherlink.com 1.10,2013-07-30 18:27:00,
2013-07-30 12:42:00,89.9,50.0,29.78,NW,308,0.0,5.0,25,0.00,,,0.00,weatherlink.com 1.10,2013-07-30 18:42:00,
2013-07-30 12:57:00,91.8,48.0,29.77,NNW,344,0.0,1.0,22,0.00,,,0.00,weatherlink.com 1.10,2013-07-30 18:57:00,
2013-07-30 13:12:00,90.3,47.0,29.77,WNW,283,6.0,12.0,22,0.00,,,0.00,weatherlink.com 1.10,2013-07-30 19:12:00,
2013-07-30 13:27:00,89.3,47.0,29.77,NW,307,4.0,11.0,23,0.00,,,0.00,weatherlink.com 1.10,2013-07-30 19:27:00,
2013-07-30 13:42:00,91.1,48.0,29.76,NW,309,0.0,10.0,23,0.00,,,0.00,weatherlink.com 1.10,2013-07-30 19:42:00,
2013-07-30 13:57:00,92.0,46.0,29.76,West,264,2.0,8.0,20,0.00,,,0.00,weatherlink.com 1.10,2013-07-30 19:57:00,
2013-07-30 14:13:00,92.4,46.0,29.75,SW,225,0.0,1.0,20,0.00,,,0.00,weatherlink.com 1.10,2013-07-30 20:13:00,
2013-07-30 14:28:00,92.3,46.0,29.75,NNW,339,2.0,7.0,20,0.00,,,0.00,weatherlink.com 1.10,2013-07-30 20:28:00,
2013-07-30 14:43:00,92.7,47.0,29.74,SW,226,0.0,1.0,21,0.00,,,0.00,weatherlink.com 1.10,2013-07-30 20:43:00,
2013-07-30 14:58:00,95.3,47.0,29.74,WSW,249,0.0,1.0,19,0.00,,,0.00,weatherlink.com 1.10,2013-07-30 20:58:00,
2013-07-30 15:13:00,93.9,47.0,29.73,NW,316,0.0,5.0,20,0.00,,,0.00,weatherlink.com 1.10,2013-07-30 21:13:00,
2013-07-30 15:28:00,94.2,47.0,29.73,West,270,0.0,5.0,20,0.00,,,0.00,weatherlink.com 1.10,2013-07-30 21:28:00,
2013-07-30 15:43:00,92.7,46.0,29.73,WSW,245,0.0,1.0,20,0.00,,,0.00,weatherlink.com 1.10,2013-07-30 21:43:00,
2013-07-30 15:58:00,91.5,46.0,29.72,WSW,252,0.0,6.0,21,0.00,,,0.00,weatherlink.com 1.10,2013-07-30 21:58:00,
2013-07-30 16:13:00,98.5,47.0,29.72,WSW,252,0.0,4.0,17,0.00,,,0.00,weatherlink.com 1.10,2013-07-30 22:13:00,
2013-07-30 16:28:00,99.0,45.0,29.72,West,271,0.0,3.0,16,0.00,,,0.00,weatherlink.com 1.10,2013-07-30 22:28:00,
2013-07-30 16:43:00,95.8,46.0,29.71,SW,233,0.0,3.0,18,0.00,,,0.00,weatherlink.com 1.10,2013-07-30 22:43:00,
2013-07-30 16:58:00,96.9,47.0,29.71,WSW,240,0.0,2.0,18,0.00,,,0.00,weatherlink.com 1.10,2013-07-30 22:58:00,
2013-07-30 17:13:00,94.3,45.0,29.70,WSW,246,0.0,0.0,18,0.00,,,0.00,weatherlink.com 1.10,2013-07-30 23:13:00,
2013-07-30 17:28:00,92.8,45.0,29.70,South,181,1.0,2.0,19,0.00,,,0.00,weatherlink.com 1.10,2013-07-30 23:28:00,
2013-07-30 17:43:00,91.8,45.0,29.70,West,273,0.0,1.0,20,0.00,,,0.00,weatherlink.com 1.10,2013-07-30 23:43:00,
2013-07-30 17:58:00,90.3,45.0,29.70,NW,314,0.0,1.0,21,0.00,,,0.00,weatherlink.com 1.10,2013-07-30 23:58:00,
2013-07-30 18:13:00,88.8,46.0,29.72,NW,323,0.0,1.0,23,0.00,,,0.00,weatherlink.com 1.10,2013-07-31 00:13:00,
2013-07-30 18:28:00,86.5,45.0,29.72,SW,217,2.0,3.0,23,0.00,,,0.00,weatherlink.com 1.10,2013-07-31 00:28:00,
2013-07-30 18:43:00,85.8,48.0,29.73,WNW,289,0.0,3.0,27,0.00,,,0.00,weatherlink.com 1.10,2013-07-31 00:43:00,
2013-07-30 18:58:00,81.6,49.0,29.75,ENE,72,22.0,26.0,32,0.00,,,0.00,weatherlink.com 1.10,2013-07-31 00:58:00,
2013-07-30 19:13:00,76.4,50.0,29.76,NNW,346,14.0,25.0,39,0.00,,,0.00,weatherlink.com 1.10,2013-07-31 01:13:00,
2013-07-30 19:28:00,74.6,49.0,29.78,NW,323,15.0,28.0,41,0.00,,,0.00,weatherlink.com 1.10,2013-07-31 01:28:00,
2013-07-30 19:43:00,75.0,48.0,29.78,NNW,343,9.0,20.0,39,0.00,,,0.00,weatherlink.com 1.10,2013-07-31 01:43:00,
2013-07-30 19:58:00,74.2,49.0,29.77,NNE,30,5.0,14.0,41,0.00,,,0.00,weatherlink.com 1.10,2013-07-31 01:58:00,
2013-07-30 20:13:00,73.1,49.0,29.77,NW,318,3.0,15.0,43,0.00,,,0.00,weatherlink.com 1.10,2013-07-31 02:13:00,
2013-07-30 20:28:00,72.0,49.0,29.78,WNW,300,0.0,8.0,44,0.00,,,0.00,weatherlink.com 1.10,2013-07-31 02:28:00,
2013-07-30 20:43:00,71.1,49.0,29.78,SE,130,0.0,1.0,46,0.00,,,0.00,weatherlink.com 1.10,2013-07-31 02:43:00,
2013-07-30 20:58:00,70.4,50.0,29.79,WNW,282,4.0,8.0,48,0.00,,,0.00,weatherlink.com 1.10,2013-07-31 02:58:00,
2013-07-30 21:13:00,69.3,50.0,29.81,WNW,284,3.0,3.0,50,0.00,,,0.00,weatherlink.com 1.10,2013-07-31 03:13:00,
2013-07-30 21:28:00,68.8,50.0,29.82,SSE,151,1.0,4.0,51,0.00,,,0.00,weatherlink.com 1.10,2013-07-31 03:28:00,
2013-07-30 21:43:00,68.6,50.0,29.84,South,179,0.0,3.0,52,0.00,,,0.00,weatherlink.com 1.10,2013-07-31 03:43:00,
2013-07-30 21:58:00,68.6,50.0,29.84,WSW,252,0.0,1.0,52,0.00,,,0.00,weatherlink.com 1.10,2013-07-31 03:58:00,
2013-07-30 22:13:00,68.5,51.0,29.84,WNW,287,0.0,1.0,53,0.00,,,0.00,weatherlink.com 1.10,2013-07-31 04:13:00,
2013-07-30 22:28:00,67.9,52.0,29.87,West,261,0.0,0.0,57,0.00,,,0.00,weatherlink.com 1.10,2013-07-31 04:28:00,
2013-07-30 22:43:00,67.4,51.0,29.90,West,273,3.0,9.0,57,0.00,,,0.00,weatherlink.com 1.10,2013-07-31 04:43:00,
2013-07-30 22:58:00,67.1,53.0,29.89,WSW,252,0.0,0.0,60,0.00,,,0.00,weatherlink.com 1.10,2013-07-31 04:58:00,
2013-07-30 23:13:00,66.8,54.0,29.84,NW,323,4.0,12.0,63,0.00,,,0.00,weatherlink.com 1.10,2013-07-31 05:13:00,
2013-07-30 23:28:00,65.9,54.0,29.84,NNW,340,4.0,8.0,65,0.00,,,0.00,weatherlink.com 1.10,2013-07-31 05:28:00,
2013-07-30 23:43:00,65.9,55.0,29.84,NNE,29,0.0,4.0,67,0.00,,,0.00,weatherlink.com 1.10,2013-07-31 05:43:00,
2013-07-30 23:58:00,65.4,55.0,29.85,South,191,0.0,1.0,68,0.00,,,0.00,weatherlink.com 1.10,2013-07-31 05:58:00,